FW4082 Weather Reports


time (UTC)temp
C
wind
direction
speed
KPH
gust
KPH
rain 1hr
cm
rain 24hr
cm
rain mn
cm
humidity
%
barometer
mb
20200229104518 4 0.0 0.0 0.00 0.00 0.00 74 1017.8
20200229103520 4 0.0 0.0 0.00 0.00 0.00 76 1017.8
20200229102518 4 0.0 0.0 0.00 0.00 0.00 74 1018.0
20200229101516 5 0.0 0.0 0.00 0.00 0.00 74 1018.3
20200229100516 5 0.0 0.0 0.00 0.00 0.00 70 1018.1
20200229095520 5 0.0 0.0 0.00 0.00 0.00 72 1018.2
20200229094522 5 0.0 0.0 0.00 0.00 0.00 73 1018.2
20200229093518 5 0.0 0.0 0.00 0.00 0.00 71 1018.3
20200229092518 5 0.0 0.0 0.00 0.00 0.00 72 1018.3
20200229090517 5 0.0 0.0 0.00 0.00 0.00 74 1018.6
20200229085518 5 0.0 0.0 0.00 0.00 0.00 73 1018.8
20200229084517 5 0.0 0.0 0.00 0.00 0.00 74 1018.8
20200229083516 6 0.0 0.0 0.00 0.00 0.00 73 1018.9
20200229082519 6 0.0 0.0 0.00 0.00 0.00 71 1018.9
20200229081518 6 0.0 0.0 0.00 0.00 0.00 68 1018.9
20200229080522 6 0.0 0.0 0.00 0.00 0.00 71 1019.1
20200229075517 7 0.0 0.0 0.00 0.00 0.00 69 1019.1
20200229074518 7 0.0 0.0 0.00 0.00 0.00 68 1019.1
20200229073518 7 0.0 0.0 0.00 0.00 0.00 70 1019.2
20200229072518 7 0.0 0.0 0.00 0.00 0.00 70 1019.3
20200229071517 7 0.0 0.0 0.00 0.00 0.00 70 1019.4
20200229070519 7 0.0 0.0 0.00 0.00 0.00 68 1019.6
20200229065516 7 0.0 0.0 0.00 0.00 0.00 68 1019.5
20200229064515 7 0.0 0.0 0.00 0.00 0.00 68 1019.6
20200229063523 7 0.0 0.0 0.00 0.00 0.00 66 1019.8
20200229062515 8 0.0 0.0 0.00 0.00 0.00 64 1019.7
20200229061520 8 0.0 0.0 0.00 0.00 0.00 67 1019.7
20200229060517 8 0.0 0.0 0.00 0.00 0.00 65 1019.8
20200229055516 8 0.0 1.6 0.00 0.00 0.00 65 1019.9
20200229054518 8 0.0 1.6 0.00 0.00 0.00 62 1019.7
20200229053520 9 292 1.6 3.2 0.00 0.00 0.00 63 1019.5
20200229052523 9 0.0 0.0 0.00 0.00 0.00 63 1019.5
20200229051517 10 0.0 1.6 0.00 0.00 0.00 61 1019.6
20200229050518 10 292 1.6 3.2 0.00 0.00 0.00 57 1019.4
20200229045515 10 0.0 1.6 0.00 0.00 0.00 59 1019.4
20200229044515 10 0.0 0.0 0.00 0.00 0.00 60 1019.5
20200229043517 10 0.0 1.6 0.00 0.00 0.00 57 1019.4
20200229042517 11 0.0 1.6 0.00 0.00 0.00 53 1019.2
20200229041517 11 0.0 0.0 0.00 0.00 0.00 53 1019.3
20200229040517 12 0.0 1.6 0.00 0.00 0.00 54 1019.3
20200229035516 12 292 1.6 3.2 0.00 0.00 0.00 47 1019.2
20200229034517 13 0.0 0.0 0.00 0.00 0.00 44 1019.1
20200229033517 13 0.0 0.0 0.00 0.00 0.00 44 1019.1
20200229032515 14 0.0 0.0 0.00 0.00 0.00 40 1019.0
20200229031518 15 0.0 0.0 0.00 0.00 0.00 40 1018.7
20200229030516 15 0.0 1.6 0.00 0.00 0.00 31 1018.5
20200229025517 16 292 1.6 3.2 0.00 0.00 0.00 30 1018.2
20200229024517 17 0.0 1.6 0.00 0.00 0.00 28 1018.4
20200229023517 17 0.0 0.0 0.00 0.00 0.00 30 1018.4
20200229022515 18 292 1.6 3.2 0.00 0.00 0.00 30 1018.4
20200229021515 18 292 1.6 1.6 0.00 0.00 0.00 33 1018.5
20200229011521 22 270 4.8 9.7 0.00 0.00 0.00 16 1018.5
20200229010519 23 270 1.6 3.2 0.00 0.00 0.00 17 1018.4
20200229005524 23 270 1.6 3.2 0.00 0.00 0.00 18 1018.4
20200229004524 24 270 1.6 4.8 0.00 0.00 0.00 13 1018.5
20200229003519 25 270 4.8 6.4 0.00 0.00 0.00 11 1018.2
20200229002519 25 270 6.4 11.3 0.00 0.00 0.00 12 1018.5
20200229001522 25 292 8.0 14.5 0.00 0.00 0.00 13 1018.3
20200229000520 26 292 6.4 11.3 0.00 0.00 0.00 12 1018.1
20200228235521 26 270 8.0 12.9 0.00 0.00 0.00 12 1018.2
20200228234520 25 247 3.2 9.7 0.00 0.00 0.00 13 1018.2
20200228233517 25 247 6.4 12.9 0.00 0.00 0.00 11 1018.5
20200228232519 26 247 6.4 12.9 0.00 0.00 0.00 12 1018.7
20200228231517 26 270 6.4 11.3 0.00 0.00 0.00 11 1018.6
20200228230517 26 292 9.7 14.5 0.00 0.00 0.00 14 1018.6
20200228225519 25 270 8.0 12.9 0.00 0.00 0.00 14 1018.6
20200228224519 25 247 4.8 11.3 0.00 0.00 0.00 13 1018.6
20200228223517 25 247 9.7 14.5 0.00 0.00 0.00 12 1018.6
20200228222518 26 225 6.4 9.7 0.00 0.00 0.00 11 1018.8
20200228221520 26 247 4.8 12.9 0.00 0.00 0.00 9 1018.5
20200228220521 26 247 6.4 11.3 0.00 0.00 0.00 9 1018.3
20200228215519 26 202 4.8 8.0 0.00 0.00 0.00 9 1018.1
20200228214519 26 157 4.8 9.7 0.00 0.00 0.00 8 1018.2
20200228213519 26 180 3.2 6.4 0.00 0.00 0.00 10 1018.3
20200228212520 26 270 3.2 8.0 0.00 0.00 0.00 9 1018.3
20200228211518 26 90 3.2 4.8 0.00 0.00 0.00 7 1018.2
20200228210517 26 157 1.6 4.8 0.00 0.00 0.00 11 1018.3
20200228205517 26 45 3.2 8.0 0.00 0.00 0.00 13 1018.4
20200228204518 26 315 4.8 6.4 0.00 0.00 0.00 13 1018.5
20200228203517 26 67 1.6 4.8 0.00 0.00 0.00 12 1018.5
20200228202517 26 22 3.2 6.4 0.00 0.00 0.00 12 1018.7
20200228201519 25 45 4.8 11.3 0.00 0.00 0.00 13 1019.2
20200228200517 26 67 3.2 12.9 0.00 0.00 0.00 11 1019.4
20200228195524 25 202 1.6 4.8 0.00 0.00 0.00 12 1019.6
20200228194520 25 292 6.4 11.3 0.00 0.00 0.00 12 1019.7
20200228193523 24 90 3.2 6.4 0.00 0.00 0.00 12 1019.7
20200228192517 24 135 1.6 3.2 0.00 0.00 0.00 12 1019.9
20200228191519 23 90 3.2 11.3 0.00 0.00 0.00 12 1020.2
20200228190520 23 112 4.8 9.7 0.00 0.00 0.00 16 1020.4
20200228185518 23 157 3.2 6.4 0.00 0.00 0.00 14 1020.4
20200228184518 23 112 4.8 11.3 0.00 0.00 0.00 13 1020.5
20200228183519 23 112 8.0 14.5 0.00 0.00 0.00 16 1020.7
20200228182518 23 135 6.4 11.3 0.00 0.00 0.00 18 1020.6
20200228181517 23 112 6.4 14.5 0.00 0.00 0.00 20 1020.8
20200228180518 22 112 9.7 16.1 0.00 0.00 0.00 18 1020.7
20200228175516 22 90 11.3 20.9 0.00 0.00 0.00 17 1020.7
20200228174519 22 112 9.7 16.1 0.00 0.00 0.00 18 1020.8
20200228173516 21 90 11.3 16.1 0.00 0.00 0.00 19 1020.7
20200228172520 20 90 4.8 9.7 0.00 0.00 0.00 26 1020.8
20200228171520 18 90 4.8 9.7 0.00 0.00 0.00 30 1020.8
20200228170526 17 67 3.2 11.3 0.00 0.00 0.00 34 1020.8
20200228165523 17 67 3.2 8.0 0.00 0.00 0.00 34 1020.8
20200228164517 16 22 1.6 4.8 0.00 0.00 0.00 35 1021.0
20200228163518 15 0.0 6.4 0.00 0.00 0.00 35 1020.9
20200228162520 14 45 1.6 4.8 0.00 0.00 0.00 40 1021.0
20200228161517 13 45 3.2 4.8 0.00 0.00 0.00 43 1020.8
20200228160518 12 45 3.2 4.8 0.00 0.00 0.00 45 1020.5
20200228155518 11 0.0 0.0 0.00 0.00 0.00 53 1020.8
20200228154517 11 0.0 1.6 0.00 0.00 0.00 56 1020.7
20200228153518 11 45 3.2 4.8 0.00 0.00 0.00 56 1020.4
20200228152516 10 45 3.2 4.8 0.00 0.00 0.00 56 1020.4
20200228151518 8 0.0 0.0 0.00 0.00 0.00 68 1020.3
20200228150518 8 0.0 0.0 0.00 0.00 0.00 71 1020.3
20200228145526 7 0.0 0.0 0.00 0.00 0.00 72 1020.1
20200228144518 7 0.0 0.0 0.00 0.00 0.00 72 1020.0
20200228143518 7 0.0 1.6 0.00 0.00 0.00 71 1020.0
20200228142518 7 0.0 0.0 0.00 0.00 0.00 64 1020.0
20200228141518 8 0.0 0.0 0.00 0.00 0.00 62 1019.8
20200228140519 7 0.0 3.2 0.00 0.00 0.00 62 1019.8
20200228135516 7 45 3.2 4.8 0.00 0.00 0.00 64 1019.7
20200228134516 7 45 3.2 6.4 0.00 0.00 0.00 62 1019.7
20200228133520 7 45 3.2 4.8 0.00 0.00 0.00 64 1019.7
20200228132519 7 45 3.2 4.8 0.00 0.00 0.00 64 1019.5
20200228131517 7 45 1.6 4.8 0.00 0.00 0.00 66 1019.4
20200228130519 6 0.0 0.0 0.00 0.00 0.00 72 1019.3
20200228125524 6 0.0 0.0 0.00 0.00 0.00 67 1019.4
20200228124523 6 0.0 1.6 0.00 0.00 0.00 70 1019.5
20200228123517 6 45 1.6 3.2 0.00 0.00 0.00 68 1019.4
20200228122517 6 45 1.6 4.8 0.00 0.00 0.00 65 1019.4
20200228121516 6 45 3.2 4.8 0.00 0.00 0.00 71 1019.3
20200228120517 5 0.0 0.0 0.00 0.00 0.00 76 1019.4
20200228115517 5 0.0 0.0 0.00 0.00 0.00 77 1019.4
20200228114518 5 0.0 0.0 0.00 0.00 0.00 78 1019.3
20200228113518 5 0.0 0.0 0.00 0.00 0.00 75 1019.3
20200228112517 5 0.0 0.0 0.00 0.00 0.00 72 1019.2
20200228111519 5 0.0 0.0 0.00 0.00 0.00 76 1019.2
20200228110518 6 0.0 0.0 0.00 0.00 0.00 73 1019.1
20200228105517 6 0.0 0.0 0.00 0.00 0.00 70 1019.2